Location: Marsån
(66.4167°N, 22.2833°E)
Time: 12:02:55
(UTC+00:00)

USA 215 - Pass Details

Date: 24 February 2024
Orbit: 1100 x 1107 km, 123.0° (Epoch: 10 April)

Event Time Altitude Azimuth Distance (km) Brightness Sun altitude
Exits shadow 17:42:23 19° 108° (ESE) 2,333 4.3 -14.5°
Maximum altitude 17:46:08 33° 159° (SSE) 1,750 4.1 -14.8°
Drops below altitude 10° 17:51:58 10° 222° (SW) 2,959 5.9 -15.4°
Sets 17:54:44 0° 232° (SW) 3,916 6.7 -15.7°
